Weather History for Honolulu, HI

Change the Weather History Date:

Saturday, February 8, 2014

  Actual Average Record
Temperature  
Mean Temperature 75 °F 73 °F  
Max Temperature 80 °F 80 °F 86 °F (1958)
Min Temperature 69 °F 66 °F 58 °F (1954)
Degree Days  
Heating Degree Days 0 0  
Month to date heating degree days 0 0  
Since 1 July heating degree days 0 0  
Cooling Degree Days 10 8  
Month to date cooling degree days 66 64  
Year to date cooling degree days 312 318  
Growing Degree Days 24 (Base 50)    
Moisture  
Dew Point 65 °F    
Average Humidity 74    
Maximum Humidity 84    
Minimum Humidity 64    
Precipitation  
Precipitation 0.00 in 0.06 in 2.10 in (1949)
Month to date precipitation 0.89 0.51  
Year to date precipitation 3.34 2.82  
Snow  
Snow 0.00 in - - ()
Month to date snowfall 0.0  
Since 1 July snowfall 0.0  
Snow Depth 0.00 in    
Sea Level Pressure  
Sea Level Pressure 29.94 in    
Wind  
Wind Speed 8 mph (North)    
Max Wind Speed 17 mph    
Max Gust Speed 20 mph    
Visibility 10 miles    
Events      
T = Trace of Precipitation, MM = Missing Value Source: NWS Daily Summary

Daily Weather History Graph

Daily Weather History Graph

Search for Another Location

Airport:

Trip Planner

Search our weather history database for the weather conditions in past years. The results will help you decide how hot, cold, wet, or windy it might be!

Date:

Astronomy

Feb. 08, 2014 Rise Set
Actual Time 7:05 AM HST 6:26 PM HST
Civil Twilight 6:43 AM HST 6:49 PM HST
Nautical Twilight 6:16 AM HST 7:15 PM HST
Astronomical Twilight 5:50 AM HST 7:41 PM HST
Moon 1:39 PM HST (2/8) 2:18 AM HST (2/8)
Length of Visible Light 12h 06m
Length of Day
11h 20m
Waxing Gibbous, 70% of the Moon is Illuminated
Feb 8
Waxing Gibbous
Feb 14
Full
Feb 22
Last Quarter
Feb 28
New
Mar 8
First Quarter

Hourly Weather History & Observations

Time (HST) Temp. Heat Index Dew Point Humidity Pressure Visibility Wind Dir Wind Speed Gust Speed Precip Events Conditions
12:24 AM 71.6 °F - 64.4 °F 78% 29.94 in 10.0 mi NNW 8.1 mph - N/A   Mostly Cloudy
12:53 AM 72.0 °F - 64.0 °F 76% 29.94 in 10.0 mi NNW 8.1 mph - N/A   Mostly Cloudy
1:53 AM 71.1 °F - 64.0 °F 78% 29.92 in 10.0 mi NW 4.6 mph - N/A   Mostly Cloudy
2:53 AM 70.0 °F - 64.0 °F 81% 29.92 in 10.0 mi NW 6.9 mph - N/A   Mostly Cloudy
3:53 AM 70.0 °F - 64.0 °F 81% 29.92 in 10.0 mi NNW 11.5 mph - N/A   Partly Cloudy
4:53 AM 70.0 °F - 64.0 °F 81% 29.91 in 10.0 mi NNW 6.9 mph - N/A   Partly Cloudy
5:53 AM 70.0 °F - 64.0 °F 81% 29.91 in 10.0 mi NNW 6.9 mph - N/A   Partly Cloudy
6:53 AM 69.1 °F - 64.0 °F 84% 29.94 in 10.0 mi NW 9.2 mph - N/A   Partly Cloudy
7:53 AM 70.0 °F - 64.0 °F 81% 29.95 in 10.0 mi NW 6.9 mph - N/A   Scattered Clouds
8:53 AM 73.9 °F - 64.9 °F 73% 29.96 in 10.0 mi NNW 5.8 mph - N/A   Mostly Cloudy
9:53 AM 78.1 °F - 66.0 °F 66% 29.98 in 10.0 mi NNE 8.1 mph - N/A   Mostly Cloudy
10:53 AM 79.0 °F - 66.0 °F 64% 29.99 in 10.0 mi Variable 3.5 mph - N/A   Mostly Cloudy
11:53 AM 79.0 °F - 66.0 °F 64% 29.97 in 10.0 mi NNE 4.6 mph - N/A   Mostly Cloudy
12:53 PM 79.0 °F - 66.0 °F 64% 29.94 in 10.0 mi Calm Calm - N/A   Mostly Cloudy
1:53 PM 79.0 °F - 66.9 °F 66% 29.91 in 10.0 mi SSW 5.8 mph - N/A   Mostly Cloudy
2:00 PM 80.6 °F 83.2 °F 68.0 °F 65% 29.91 in 10.0 mi South 8.1 mph - N/A   Mostly Cloudy
2:07 PM 78.8 °F - 66.2 °F 65% 29.91 in 10.0 mi South 6.9 mph - N/A   Mostly Cloudy
2:53 PM 79.0 °F - 68.0 °F 69% 29.89 in 10.0 mi Variable 4.6 mph - N/A   Mostly Cloudy
3:45 PM 78.8 °F - 66.2 °F 65% 29.89 in 10.0 mi NE 10.4 mph - N/A   Mostly Cloudy
3:53 PM 77.0 °F - 64.9 °F 66% 29.89 in 10.0 mi NNE 12.7 mph - N/A   Mostly Cloudy
4:53 PM 77.0 °F - 64.9 °F 66% 29.90 in 10.0 mi NNE 12.7 mph - N/A   Mostly Cloudy
5:53 PM 75.0 °F - 64.9 °F 71% 29.93 in 10.0 mi NNE 10.4 mph - N/A   Mostly Cloudy
6:53 PM 73.9 °F - 64.0 °F 71% 29.95 in 10.0 mi North 10.4 mph - N/A   Mostly Cloudy
7:53 PM 73.0 °F - 64.0 °F 73% 29.95 in 10.0 mi NNE 6.9 mph - N/A   Mostly Cloudy
8:53 PM 72.0 °F - 64.0 °F 76% 29.97 in 10.0 mi NE 10.4 mph - N/A   Partly Cloudy
9:53 PM 73.0 °F - 64.0 °F 73% 29.98 in 10.0 mi NNE 9.2 mph - N/A   Mostly Cloudy
10:53 PM 72.0 °F - 64.0 °F 76% 29.97 in 10.0 mi NE 10.4 mph - N/A   Mostly Cloudy
11:53 PM 71.1 °F - 64.9 °F 81% 29.97 in 10.0 mi NNE 6.9 mph - N/A   Mostly Cloudy